Location: Unnamed
(25.2826°S, 57.6099°W)
Time: 00:58:06
(UTC-04:00)

ISS - Visible Passes

Search period start: 25 April 2024 00:00
Search period end: 05 May 2024 00:00
Orbit: 411 x 417 km, 51.6° (Epoch: 24 April)

Date Brightness Start Highest point End Pass type
(mag) Time Alt. Az. Time Alt. Az. Time Alt. Az.
02 May -1.2 18:53:03 10° SSW 18:53:31 13° SSW 18:53:31 13° SSW visible
03 May -1.9 18:04:05 10° S 18:06:02 14° SE 18:06:29 14° SE visible
04 May -3.6 18:49:31 10° SW 18:52:35 69° WSW 18:52:35 69° WSW visible
